STARLINK-1579, 46083

Orbit data source: Space-Track

STARLINK-1579, 46083 is a payload satellite owned by SpaceX/Seattle (US) in LEO that was launched on Fri, 07 Aug 2020 UTC via an FALCON 9 launch vehicle from the Air Force Eastern Test Range (AFETR). Payload-class satellites include a variety of spacecraft equipped with specific instruments for various scientific and technological missions. These include communications satellites like Starlink; space stations such as the ISS; scientific satellites like the Hubble; Earth observation satellites from companies like Planet Labs, Umbra, and HawkEye 360; GPS; miniature CubeSats for education and research; and military/defense satellites.

Loading next visibility...
Identifier
46083, 2020-055BJ
Orbit
LEO
Country
Flag of USUS
Related business
Manufacturer
SpaceX/Seattle
Mission
Operational Commercial Communications
Bus & Motor
STARLINK, Unknown motor
Mass
260 kg wet, ~248 kg dry
Launch date (UTC)
2020-08-07 (6 years ago)
Launch vehicle
FALCON 9
Launch site
Air Force Eastern Test Range (AFETR)
Object type
Payload
Rocket body
Debris
Shape & HBR
Box + 1 Pan, 10.1 m
Radar Cross Section
13.562 m², Large (>1 m²)

Expand to show TLE details & history
Last TLE update: 22 hours ago

TLE from 22 hours ago
0 STARLINK-1579
1 46083U 20055BJ  26036.93580877 -.00002984  00000-0 -18142-3 0  9991
2 46083  53.0541 239.1556 0001542 102.1105 258.0056 15.06415384304510
Epoch: 2026-02-05T22:27Z
TLE epoch observation values (Epoch: 2026-02-05T22:27:33.877Z)
Latitude
-0.0001°
Longitude
126.18348°
Altitude
548.266 km
Speed
7.589 km/s
True Right ascension
15h 56m 37s
True Declination
0° 00' 00"
Sunlit
Object was in daylight at epoch
Visualization orbit readout
Latitude
Unknown
Longitude
Unknown
Altitude
Unknown
Speed
Unknown
Apparent Right ascension
Unknown
Apparent Declination
Unknown
Sunlit
N/A
Visualization observer readout
Local Sidereal Time
23:05:03
Azimuth
Unknown
Elevation
Unknown
Doppler factor
Unknown
Orbital elements
Apogee altitude
548.503 km
Perigee altitude
546.367 km
Semi-major axis
6,925.572 km
Eccentricity
0.00015
Inclination
53.0541°
RAAN
239.1556°
Arg. of periapsis
102.1105°
True anomaly
257.98832°
Mean anomaly
258.0056°
Eccentric anomaly
257.99696°
Mean motion
3.76582 °/min
Orbital period
95.6 mins
BSTAR
-0.00018142
Loading maneuver chart data...
Computing Atmospheric mass density...
Loading historical data...
Loading historical data...
Loading historical data...
Loading historical data...
Loading historical data...
Loading historical data...
Loading historical data...

Documentation

Showing up to 5 results
|